Morris, MN

9:09 AM CST on January 22, 2018 (GMT -0600)
Morris Municipal

Weather History for KMOX - July, 2013

Change the Weather History Date:

Monday, July 29, 2013

  Actual Average Record
Temperature  
Mean Temperature 60 °F -  
Max Temperature 73 °F 78 °F 95 °F (2006)
Min Temperature 48 °F 57 °F 48 °F (2013)
Degree Days  
Heating Degree Days 4    
Growing Degree Days 10 (Base 50)    
Moisture  
Dew Point 55 °F    
Average Humidity 80    
Maximum Humidity 100    
Minimum Humidity 50    
Precipitation  
Precipitation 0.00 in - - ()
Sea Level Pressure  
Sea Level Pressure 30.06 in    
Wind  
Wind Speed 5 mph (SE)    
Max Wind Speed 13 mph    
Max Gust Speed 16 mph    
Visibility 10 miles    
Events Rain    
Averages and records for this station are not official NWS values.
T = Trace of Precipitation, MM = Missing Value Source: NWS Daily Summary

Daily Weather History Graph

Daily Weather History Graph

Search for Another Location

Airport or City:

Trip Planner

Search our weather history database for the weather conditions in past years. The results will help you decide how hot, cold, wet, or windy it might be!

Date:

Astronomy

Jul. 29, 2013 Rise Set
Actual Time 6:04 AM CDT 8:55 PM CDT
Civil Twilight 5:29 AM CDT 9:29 PM CDT
Nautical Twilight 4:45 AM CDT 10:13 PM CDT
Astronomical Twilight 3:53 AM CDT 11:05 PM CDT
Moon No Moon Rise 2:14 PM CDT (7/29)
Length of Visible Light 16h 00m
Length of Day
14h 51m
Waning Gibbous, 50% of the Moon is Illuminated
Jul 29
Waning Gibbous
Jul 29
Last Quarter
Aug 6
New
Aug 14
First Quarter
Aug 20
Full

Hourly Weather History & Observations

Time (CDT) Temp. Dew Point Humidity Pressure Visibility Wind Dir Wind Speed Gust Speed Precip Events Conditions
12:09 AM 57.2 °F 53.6 °F 88% 30.06 in 10.0 mi Calm Calm - N/A   Clear
12:29 AM 55.4 °F 51.8 °F 88% 30.05 in 10.0 mi Calm Calm - N/A   Clear
12:49 AM 55.4 °F 51.8 °F 88% 30.06 in 10.0 mi ESE 3.5 mph - N/A   Clear
1:09 AM 55.4 °F 51.8 °F 88% 30.06 in 10.0 mi ESE 3.5 mph - N/A   Clear
1:29 AM 53.6 °F 50.0 °F 88% 30.06 in 10.0 mi ESE 4.6 mph - N/A   Clear
1:49 AM 51.8 °F 50.0 °F 94% 30.06 in 10.0 mi SE 4.6 mph - N/A   Clear
2:09 AM 53.6 °F 50.0 °F 88% 30.06 in 10.0 mi SE 5.8 mph - N/A   Clear
2:29 AM 51.8 °F 50.0 °F 94% 30.06 in 10.0 mi SSE 3.5 mph - N/A   Clear
2:49 AM 51.8 °F 50.0 °F 94% 30.06 in 10.0 mi SSE 3.5 mph - N/A   Clear
3:09 AM 51.8 °F 48.2 °F 88% 30.06 in 10.0 mi SE 4.6 mph - N/A   Clear
3:29 AM 50.0 °F 48.2 °F 94% 30.06 in 10.0 mi SE 4.6 mph - N/A   Clear
3:49 AM 50.0 °F 48.2 °F 94% 30.06 in 10.0 mi SE 3.5 mph - N/A   Clear
4:09 AM 50.0 °F 48.2 °F 94% 30.06 in 10.0 mi SE 4.6 mph - N/A   Clear
4:29 AM 48.2 °F 46.4 °F 93% 30.06 in 10.0 mi ESE 5.8 mph - N/A   Clear
4:49 AM 48.2 °F 46.4 °F 93% 30.05 in 10.0 mi ESE 5.8 mph - N/A   Clear
5:09 AM 50.0 °F 48.2 °F 94% 30.05 in 10.0 mi ESE 6.9 mph - N/A   Clear
5:29 AM 50.0 °F 48.2 °F 94% 30.05 in 10.0 mi ESE 3.5 mph - N/A   Clear
5:49 AM 48.2 °F 48.2 °F 100% 30.05 in 10.0 mi ESE 5.8 mph - N/A   Clear
6:09 AM 50.0 °F 48.2 °F 94% 30.06 in 10.0 mi SE 4.6 mph - N/A   Clear
6:29 AM 51.8 °F 50.0 °F 94% 30.06 in 10.0 mi SE 5.8 mph - N/A   Clear
6:49 AM 55.4 °F 51.8 °F 88% 30.07 in 10.0 mi SE 5.8 mph - N/A   Clear
7:09 AM 57.2 °F 53.6 °F 88% 30.06 in 10.0 mi SE 6.9 mph - N/A   Clear
7:29 AM 57.2 °F 53.6 °F 88% 30.07 in 10.0 mi SSE 5.8 mph - N/A   Clear
7:49 AM 57.2 °F 55.4 °F 94% 30.07 in 10.0 mi SSE 4.6 mph - N/A   Clear
8:09 AM 59.0 °F 55.4 °F 88% 30.08 in 10.0 mi SSE 5.8 mph - N/A   Clear
8:29 AM 60.8 °F 55.4 °F 82% 30.09 in 10.0 mi SSE 6.9 mph - N/A   Clear
8:49 AM 62.6 °F 55.4 °F 77% 30.08 in 10.0 mi SE 6.9 mph - N/A   Clear
9:09 AM 62.6 °F 55.4 °F 77% 30.09 in 10.0 mi SSE 8.1 mph - N/A   Clear
9:29 AM 64.4 °F 55.4 °F 73% 30.08 in 10.0 mi SSE 10.4 mph - N/A   Clear
9:49 AM 66.2 °F 55.4 °F 68% 30.08 in 10.0 mi SE 10.4 mph - N/A   Clear
10:09 AM 66.2 °F 55.4 °F 68% 30.08 in 10.0 mi SSE 9.2 mph - N/A   Clear
10:29 AM 68.0 °F 57.2 °F 68% 30.08 in 10.0 mi SE 9.2 mph - N/A   Clear
10:49 AM 69.8 °F 57.2 °F 64% 30.07 in 10.0 mi SE 10.4 mph - N/A   Clear
11:09 AM 69.8 °F 57.2 °F 64% 30.07 in 10.0 mi SSE 10.4 mph - N/A   Clear
11:29 AM 71.6 °F 55.4 °F 57% 30.07 in 10.0 mi South 10.4 mph - N/A   Clear
11:49 AM 71.6 °F 55.4 °F 57% 30.08 in 10.0 mi SSE 12.7 mph 16.1 mph N/A   Clear
12:09 PM 71.6 °F 55.4 °F 57% 30.07 in 10.0 mi South 9.2 mph 16.1 mph N/A   Clear
12:29 PM 73.4 °F 53.6 °F 50% 30.07 in 10.0 mi SSE 11.5 mph - N/A   Clear
12:49 PM 73.4 °F 55.4 °F 53% 30.07 in 10.0 mi South 10.4 mph - N/A   Clear
1:09 PM 73.4 °F 55.4 °F 53% 30.07 in 10.0 mi SE 8.1 mph - N/A   Scattered Clouds
1:29 PM 73.4 °F 53.6 °F 50% 30.07 in 10.0 mi SSE 9.2 mph - N/A   Scattered Clouds
1:49 PM 73.4 °F 53.6 °F 50% 30.06 in 10.0 mi SSE 10.4 mph - N/A   Scattered Clouds
2:09 PM 71.6 °F 53.6 °F 53% 30.06 in 10.0 mi SSE 9.2 mph - N/A   Clear
2:29 PM 71.6 °F 53.6 °F 53% 30.06 in 10.0 mi SSE 6.9 mph - N/A   Clear
2:49 PM 71.6 °F 53.6 °F 53% 30.06 in 10.0 mi SSE 5.8 mph - N/A   Clear
3:09 PM 71.6 °F 55.4 °F 57% 30.06 in 10.0 mi SSE 4.6 mph - N/A   Clear
3:29 PM 71.6 °F 55.4 °F 57% 30.06 in 10.0 mi SE 3.5 mph - N/A   Clear
3:49 PM 71.6 °F 55.4 °F 57% 30.05 in 10.0 mi SSE 5.8 mph - N/A   Scattered Clouds
4:09 PM 69.8 °F 55.4 °F 60% 30.05 in 10.0 mi SSE 4.6 mph - N/A   Mostly Cloudy
4:29 PM 69.8 °F 57.2 °F 64% 30.05 in 10.0 mi SSE 4.6 mph - N/A Rain Light Rain
4:49 PM 66.2 °F 60.8 °F 83% 30.06 in 10.0 mi SSE 3.5 mph - N/A Rain Light Rain
5:09 PM 66.2 °F 60.8 °F 83% 30.06 in 10.0 mi ENE 3.5 mph - N/A Rain Light Rain
5:29 PM 66.2 °F 60.8 °F 83% 30.06 in 10.0 mi Calm Calm - N/A Rain Light Rain
5:49 PM 66.2 °F 60.8 °F 83% 30.06 in 10.0 mi Calm Calm - N/A   Light Drizzle
6:09 PM 66.2 °F 60.8 °F 83% 30.07 in 7.0 mi SSE 5.8 mph - N/A Rain Light Rain
6:29 PM 64.4 °F 60.8 °F 88% 30.06 in 10.0 mi Calm Calm - N/A Rain Light Rain
6:49 PM 64.4 °F 60.8 °F 88% 30.06 in 10.0 mi Calm Calm - N/A   Light Drizzle
7:09 PM 64.4 °F 60.8 °F 88% 30.06 in 7.0 mi ESE 4.6 mph - N/A Rain Rain
7:29 PM 62.6 °F 57.2 °F 82% 30.06 in 7.0 mi SE 4.6 mph - N/A Rain Rain
7:49 PM 62.6 °F 55.4 °F 77% 30.06 in 7.0 mi SE 3.5 mph - N/A Rain Rain
8:09 PM 62.6 °F 57.2 °F 82% 30.07 in 4.0 mi SSW 5.8 mph - N/A   Light Drizzle
8:29 PM 60.8 °F 59.0 °F 94% 30.06 in 10.0 mi East 5.8 mph - N/A   Overcast
8:49 PM 60.8 °F 59.0 °F 94% 30.05 in 10.0 mi East 5.8 mph - N/A   Overcast
9:09 PM 60.8 °F 59.0 °F 94% 30.04 in 10.0 mi East 5.8 mph - N/A   Overcast
9:29 PM 60.8 °F 60.8 °F 100% 30.05 in 10.0 mi East 5.8 mph - N/A   Overcast
9:49 PM 60.8 °F 60.8 °F 100% 30.05 in 10.0 mi East 6.9 mph - N/A   Overcast
10:09 PM 60.8 °F 59.0 °F 94% 30.05 in 10.0 mi SE 6.9 mph - N/A   Overcast
10:29 PM 60.8 °F 59.0 °F 94% 30.05 in 10.0 mi SE 6.9 mph - N/A   Overcast
10:49 PM 60.8 °F 59.0 °F 94% 30.06 in 10.0 mi SE 5.8 mph - N/A   Overcast
11:09 PM 62.6 °F 60.8 °F 94% 30.05 in 10.0 mi SE 9.2 mph - N/A   Overcast
11:29 PM 62.6 °F 59.0 °F 88% 30.05 in 10.0 mi SE 10.4 mph - N/A   Overcast
11:49 PM 62.6 °F 59.0 °F 88% 30.06 in 10.0 mi SE 8.1 mph - N/A   Overcast